Location: Unspecified
(0.0000°N, 0.0000°E)
Time: 13:36:38
(UTC+02:00)

Ariane H10 - Visible Passes

Search period start: 26 April 2018 00:00
Search period end: 06 May 2018 00:00
Orbit: 466 x 34780 km, 7.5° (Epoch: 25 April)

Date Brightness Start Highest point End Pass type
(mag) Time Alt. Az. Time Alt. Az. Time Alt. Az.
26 Apr 6.4 03:45:54 10° W 05:24:52 40° W 13:11:24 10° E visible
26 Apr 8.5 23:52:52 10° WNW 00:33:04 84° NNE 09:34:45 10° E visible
27 Apr 6.2 20:15:28 10° WNW 20:22:11 63° N 05:46:47 10° E visible
29 Apr 6.4 03:44:23 10° W 05:22:25 39° W 13:08:56 10° E visible
29 Apr 8.6 23:50:31 10° WNW 00:33:15 85° NNE 09:32:22 10° E visible
30 Apr 6.3 20:12:58 10° WNW 20:19:54 64° N 05:44:53 10° E visible
02 May 6.4 03:42:51 10° W 05:19:54 38° W 13:06:24 10° E visible
02 May 8.6 23:48:05 10° W 00:33:37 86° NNE 09:29:53 10° E visible
03 May 6.3 20:10:24 10° WNW 20:17:33 64° N 05:42:52 10° E visible
05 May 6.3 03:41:17 10° W 05:17:19 36° W 13:03:47 10° E visible
